Theta_e
285 286 286 286 286 286 286 286 286 286 285 284 284 284 284 283 283 283 282 282 282 282 281 281 281 281 280 280 279 279 279 278 278 278 278 278 277 277 277 277 277 276 276 276 277 276 276 275 275 275 276 275 275 274 274 274 274 274 274 274 273 274 273 272 271 271 273 276 275 275 274 274 273 274 273 273 274 274 276 275 275 275 275 275 275
286 286 286 286 285 286 286 286 286 285 284 284 284 283 283 283 283 282 282 282 282 282 281 281 281 281 280 279 279 279 279 278 278 278 278 277 277 277 277 276 276 275 275 275 275 276 276 275 274 274 274 274 273 273 273 273 273 272 272 273 272 272 273 272 271 271 270 273 273 273 273 274 271 274 272 272 273 274 274 274 275 275 275 275 275
287 286 286 285 285 286 286 285 285 285 284 284 284 284 283 283 282 282 282 281 281 282 281 281 281 280 280 280 279 279 279 278 278 278 278 277 277 277 277 276 276 275 275 275 275 275 274 274 273 272 273 272 272 272 272 272 272 271 271 272 271 271 272 272 270 268 269 269 271 270 271 272 272 272 273 273 274 274 273 274 274 275 276 276 275
286 285 285 285 285 285 285 285 284 284 284 284 284 284 284 283 282 282 282 281 281 281 281 281 280 280 280 279 279 279 278 278 278 278 278 277 277 277 276 276 276 276 275 275 274 274 274 273 272 272 271 271 270 271 271 271 271 271 270 271 271 270 271 271 271 269 268 267 269 270 271 271 271 272 273 274 273 273 274 274 275 275 275 276 276
285 285 286 286 285 285 284 284 284 283 284 284 284 284 283 282 282 282 281 281 281 281 281 281 280 280 280 279 279 278 278 278 277 277 277 277 277 277 276 276 276 275 275 274 275 274 273 273 272 271 271 270 269 269 270 269 270 270 270 270 270 270 270 270 269 269 268 267 268 270 271 271 272 272 273 272 273 273 274 274 274 274 275 276 276
286 286 285 285 285 284 284 284 284 284 284 284 284 284 284 283 281 282 282 281 280 281 280 280 280 280 280 279 279 279 278 278 277 277 277 277 277 276 276 276 275 275 274 274 274 273 273 273 272 271 271 270 269 268 269 268 268 268 268 269 269 270 269 269 269 269 269 268 268 268 270 270 271 272 273 273 272 272 273 274 274 275 275 275 276
286 286 285 285 285 284 284 284 285 285 285 285 285 284 284 283 282 282 282 281 280 280 280 280 280 280 280 279 279 279 278 278 277 277 277 276 276 276 275 275 275 274 274 273 273 273 273 272 271 271 270 270 269 268 268 268 267 266 267 267 269 269 269 269 269 269 269 268 269 269 269 271 271 270 272 273 273 273 272 272 273 275 275 275 275
285 285 286 285 285 285 285 285 285 285 285 284 284 284 284 283 282 282 281 281 280 280 280 280 280 280 280 279 279 278 278 277 277 277 276 276 276 275 275 274 274 273 273 273 273 272 272 272 271 271 271 270 269 269 269 268 268 267 267 267 268 268 267 268 268 269 268 269 269 269 270 270 271 272 273 273 272 273 274 273 272 273 274 275 276
285 285 285 285 285 285 285 285 285 285 284 283 283 283 283 282 282 281 281 281 281 280 280 280 279 279 279 279 278 278 278 277 277 277 276 276 275 275 274 274 273 273 272 272 272 272 272 272 272 271 271 273 274 273 272 271 268 266 267 268 268 268 268 269 269 269 269 269 269 270 270 270 271 272 272 272 272 272 274 274 273 274 275 275 275
285 285 285 285 286 285 285 285 284 284 283 283 283 283 282 281 281 280 280 280 280 280 279 279 279 279 278 278 278 278 278 278 279 281 280 276 276 275 274 274 273 273 272 271 271 272 272 272 272 274 275 275 275 275 275 275 274 270 269 270 269 269 269 269 269 269 269 268 269 270 269 270 271 272 272 273 274 274 274 274 273 274 274 274 274
285 285 285 286 286 285 284 284 284 283 283 283 282 282 281 280 280 280 279 279 280 280 280 279 279 279 278 278 277 277 277 278 281 282 282 281 277 275 274 273 273 272 272 271 271 271 271 271 271 274 275 275 274 276 276 276 276 276 275 275 274 271 270 269 269 270 269 269 270 270 270 270 272 273 273 274 274 274 274 274 274 273 272 271 270
286 286 286 286 285 285 284 283 283 283 282 282 282 281 281 280 279 279 279 279 279 279 279 279 279 279 279 278 277 277 277 280 282 283 283 282 279 275 274 273 272 272 272 271 271 271 271 271 271 272 273 273 273 274 276 277 277 278 278 277 277 277 276 273 271 270 271 270 270 271 272 272 273 274 274 274 274 274 274 274 274 273 272 272 272
286 285 286 285 284 284 283 283 283 282 281 281 281 280 280 279 279 279 279 279 279 278 279 279 278 279 278 277 277 277 277 281 283 284 284 283 281 277 273 273 272 272 272 271 271 271 271 271 271 272 273 276 275 274 274 275 277 278 278 279 278 279 279 279 279 276 276 274 273 273 274 274 273 273 274 274 275 274 274 274 274 274 274 273 273
285 285 284 284 283 282 282 282 282 282 280 280 280 280 279 279 279 279 279 278 278 278 278 278 278 278 277 277 277 277 276 281 283 284 284 284 282 278 273 273 272 272 272 271 272 271 271 271 271 272 272 273 274 273 273 272 272 272 273 274 274 275 277 278 278 278 278 276 275 273 274 275 273 274 275 276 275 274 274 273 274 274 274 274 275
284 284 283 282 281 280 281 281 281 280 279 279 279 279 279 279 278 278 278 278 278 277 277 277 277 277 277 277 277 276 276 281 284 284 284 284 283 278 272 272 272 271 272 272 272 272 272 272 272 272 272 272 273 273 272 271 270 270 270 271 272 273 274 274 274 275 275 275 275 275 275 276 276 276 276 277 276 276 276 276 276 275 275 275 274
283 282 281 282 280 279 278 278 278 277 278 277 278 279 278 278 278 278 278 277 278 278 277 277 277 276 276 276 276 275 275 282 284 285 285 284 283 274 272 271 271 271 271 272 272 272 273 273 272 272 272 272 275 277 275 272 271 270 270 271 272 273 273 276 277 278 276 276 275 275 276 277 279 278 279 278 278 278 277 276 274 272 270 268 267
283 282 281 281 280 278 277 277 277 277 277 277 277 278 278 278 278 278 277 277 277 277 276 276 276 276 276 275 275 275 274 281 284 285 285 285 281 272 271 271 271 271 271 272 272 273 273 273 273 272 272 272 275 278 278 276 272 271 271 271 272 273 273 275 278 279 279 280 280 281 281 281 281 280 281 281 279 277 274 270 268 268 267 265 266
281 280 280 280 279 278 279 278 279 278 278 277 278 278 278 278 278 277 277 276 276 276 276 276 276 276 275 275 275 274 273 279 284 285 285 285 278 272 271 271 271 271 272 272 273 273 273 276 274 272 272 272 276 277 278 277 274 274 273 273 272 271 272 274 275 276 278 279 278 278 278 279 279 279 278 278 278 276 270 267 268 268 266 266 265
280 278 278 278 277 277 278 279 280 278 278 278 277 277 277 277 277 276 277 277 276 276 275 275 274 274 274 274 276 274 273 278 284 284 285 285 277 272 272 272 271 272 272 272 272 272 273 275 276 274 273 273 277 278 278 277 275 274 273 272 271 271 273 275 273 272 271 271 273 273 274 275 273 271 271 275 275 274 271 269 268 267 266 266 266
278 277 275 274 273 275 277 278 279 278 278 277 277 277 276 275 275 275 275 275 275 274 274 274 273 273 273 273 274 274 273 275 281 284 285 284 280 274 273 272 271 272 272 272 271 272 273 274 276 278 277 277 277 278 278 279 275 274 274 272 272 272 274 272 271 271 272 273 272 272 270 270 269 269 269 269 269 270 270 270 270 269 267 267 267
276 275 274 273 273 274 274 276 276 276 276 276 276 275 275 275 274 273 272 272 272 272 272 272 272 271 271 271 272 272 272 274 279 284 285 285 282 278 273 273 273 272 272 272 272 272 272 272 273 277 279 278 278 279 279 279 278 275 274 274 274 274 274 272 272 273 269 269 268 268 267 266 266 267 268 268 269 269 270 270 270 269 268 267 266
275 274 275 274 273 273 273 275 275 275 274 274 274 273 273 273 273 272 271 271 271 271 271 270 270 269 269 270 270 271 273 276 277 283 284 285 283 280 275 274 274 273 272 272 272 271 272 272 272 275 279 279 279 278 278 278 278 276 275 277 277 276 274 272 268 267 266 264 263 263 263 263 264 265 266 267 268 268 269 269 270 270 270 270 268
276 275 274 274 273 273 273 274 274 274 274 274 274 273 272 272 272 272 271 270 270 270 269 269 268 268 267 268 269 270 271 275 279 280 284 284 284 281 279 276 278 274 272 271 271 271 272 273 273 276 278 278 277 277 277 278 277 276 277 276 275 275 274 266 265 263 262 261 261 261 262 263 263 264 265 266 267 268 268 269 269 269 269 269 270
276 275 274 273 273 273 273 273 273 273 273 273 273 272 271 271 271 271 271 270 270 269 268 268 267 267 267 268 268 269 271 273 277 281 282 284 284 283 281 279 279 274 273 272 272 272 273 273 273 277 277 276 277 277 277 277 275 275 275 274 274 273 266 263 261 259 260 260 260 260 261 263 264 264 265 266 267 268 268 268 268 268 268 268 269
277 276 275 273 273 273 272 273 272 272 273 273 272 271 270 270 270 270 270 270 270 269 268 268 268 268 268 268 268 268 269 271 273 278 281 283 284 283 281 280 280 278 273 272 273 273 274 276 276 277 276 276 277 277 276 275 274 274 273 273 272 263 260 258 258 258 258 259 260 260 261 263 265 266 267 267 267 268 267 267 267 268 268 268 268
278 278 277 274 273 272 272 272 272 272 272 273 272 272 270 270 270 270 270 270 270 270 269 268 269 269 268 267 267 268 269 270 271 274 278 281 282 283 281 280 280 278 275 273 275 276 276 276 276 276 276 275 272 268 266 267 271 272 272 270 263 259 258 257 258 257 258 259 260 260 262 263 264 266 266 266 266 265 265 264 264 265 265 265 265
277 277 277 276 274 272 272 272 272 272 272 272 272 271 271 270 270 269 269 269 269 269 269 269 269 269 268 268 267 268 268 269 270 272 275 277 279 280 280 278 279 278 274 274 275 274 275 275 274 274 272 272 271 271 269 269 266 265 262 261 259 258 259 257 258 259 259 260 260 261 263 264 265 265 264 264 263 264 265 264 264 264 265 265 265
274 276 277 277 274 272 272 271 271 271 271 272 271 271 271 271 270 269 269 269 269 269 269 268 268 269 268 269 267 267 268 268 269 271 273 276 277 278 278 276 276 275 273 273 273 273 273 274 272 268 267 265 264 262 262 261 260 260 259 259 259 260 263 266 267 262 262 261 261 262 262 262 261 262 263 263 263 264 265 264 264 264 265 265 265
272 273 275 276 275 273 272 272 271 271 271 271 272 272 271 271 271 271 272 272 272 271 270 270 270 271 270 269 268 267 268 268 269 274 274 277 276 276 276 275 275 273 274 274 268 267 265 263 262 262 262 261 259 259 258 256 257 256 256 255 255 256 256 256 256 258 258 258 259 259 260 260 261 262 262 262 262 263 265 264 264 264 265 266 265
269 271 273 275 275 273 271 271 271 271 271 270 270 271 273 275 273 272 271 274 276 276 275 272 272 272 271 271 271 269 268 269 274 276 277 279 280 280 279 279 277 274 275 274 269 265 264 262 262 260 260 259 258 258 258 257 256 256 255 262 260 257 257 257 257 258 259 259 259 260 260 260 260 261 261 261 262 263 264 266 264 265 264 265 265
268 270 272 273 274 273 272 271 271 270 270 270 270 270 270 272 276 277 275 275 276 277 277 277 276 276 273 271 272 275 273 274 276 277 278 279 280 280 280 279 277 277 276 270 266 264 262 261 260 259 259 259 259 259 258 258 257 256 256 256 255 257 259 258 259 258 259 259 260 260 260 260 260 261 261 262 262 263 263 264 264 264 264 265 265
268 269 271 273 274 274 273 272 271 270 270 270 270 269 269 269 270 275 277 276 277 277 277 278 277 277 277 274 272 272 274 276 277 278 278 279 280 280 279 278 278 278 276 273 264 263 262 261 260 259 259 259 259 258 258 258 258 257 256 255 256 257 258 258 260 259 259 259 259 260 260 260 261 261 262 262 263 262 263 263 264 264 265 265 265
268 269 271 272 273 273 272 272 271 270 269 269 269 269 269 269 268 269 272 277 278 277 278 278 278 278 278 277 276 275 275 276 278 278 279 279 280 279 279 279 278 278 276 268 263 262 261 261 260 259 259 259 259 259 257 258 258 257 257 256 257 258 260 261 263 261 260 260 261 261 261 261 261 262 262 262 262 262 263 263 264 264 264 264 264
266 267 269 271 273 274 273 272 271 271 270 270 269 269 269 269 269 269 269 270 272 275 277 278 278 278 278 278 277 276 277 277 278 279 279 279 279 279 279 276 278 278 272 264 263 261 261 260 260 259 259 259 258 258 258 257 258 257 257 258 259 260 261 263 261 260 259 260 259 260 260 261 261 261 261 261 262 263 263 264 264 264 264 263 263
266 268 269 270 271 273 274 273 272 271 270 270 269 269 269 269 269 269 269 269 269 269 270 273 277 279 276 277 278 277 277 278 279 279 279 280 279 279 279 274 273 271 267 263 263 262 260 260 259 259 258 258 258 258 258 258 257 257 257 258 258 259 259 259 259 259 259 259 260 260 260 261 261 261 262 261 262 262 263 263 264 264 263 263 262
266 267 268 270 272 274 274 274 272 271 270 270 270 270 269 269 269 269 270 270 270 269 270 272 273 277 279 278 278 278 278 279 279 279 279 280 279 279 272 271 269 265 263 262 261 261 260 260 260 259 259 258 258 258 258 257 257 257 258 258 258 258 258 258 259 259 260 261 261 261 261 260 261 261 261 262 262 263 263 263 264 264 263 262 263
264 265 267 269 270 273 274 274 272 271 272 270 270 269 269 269 269 269 269 269 270 270 271 272 272 273 276 275 277 278 279 279 279 279 279 279 280 276 271 269 266 264 261 261 260 259 259 259 259 259 258 258 258 258 257 257 257 257 260 260 261 260 258 258 259 261 262 260 259 259 259 259 260 260 261 261 262 263 263 264 263 263 263 263 264
265 266 268 270 271 272 273 273 271 272 271 270 269 269 268 268 268 269 269 269 270 270 270 271 272 272 272 272 276 276 277 279 279 279 279 279 275 270 268 265 263 262 261 260 260 259 259 258 258 258 258 258 257 256 256 256 256 256 257 258 259 258 262 262 262 260 258 257 258 258 259 259 260 260 261 261 262 263 263 264 263 263 263 263 262
265 266 267 268 269 269 272 272 270 270 269 269 268 268 268 268 268 268 269 269 270 270 271 271 271 271 272 273 274 276 276 275 274 273 274 272 268 266 264 263 262 262 260 259 259 259 258 257 257 257 256 256 256 255 256 256 256 256 258 258 258 257 257 256 256 257 257 257 257 258 259 259 260 261 262 262 263 264 264 264 263 263 262 261 261
263 264 266 268 269 270 271 270 269 268 268 268 267 268 267 268 268 268 269 269 269 270 270 270 270 271 273 273 274 275 273 273 273 270 265 264 264 263 263 262 261 260 259 258 258 258 258 257 256 256 255 254 254 254 254 255 255 257 257 258 257 257 257 256 256 256 256 257 257 258 258 259 260 261 262 263 264 264 264 264 263 263 262 262 262
263 264 266 268 270 270 270 269 268 268 267 267 267 267 267 268 268 268 269 269 270 270 270 270 271 272 273 273 277 276 273 269 263 263 264 263 262 262 261 261 260 259 258 257 257 257 257 256 255 255 254 253 253 253 253 253 254 255 256 257 257 257 256 256 256 256 256 257 257 258 258 259 261 261 262 263 266 266 265 264 263 263 263 262 262
263 264 264 265 266 268 269 268 267 267 267 267 267 267 267 267 268 269 269 269 269 269 270 270 271 271 273 276 276 275 268 265 265 263 262 262 261 260 260 259 259 259 258 257 257 256 256 255 255 254 253 253 252 252 252 252 253 254 254 255 255 255 255 255 256 256 256 256 257 258 259 260 262 263 264 266 264 264 264 263 263 263 262 262 262
262 263 264 265 266 267 267 267 267 267 266 266 266 266 267 268 268 268 269 269 269 269 269 267 266 268 271 274 273 272 264 263 260 260 259 259 259 258 258 258 258 258 258 257 257 257 256 255 254 253 253 253 253 253 253 253 253 252 252 252 253 254 254 255 255 256 256 257 258 259 260 260 262 262 263 263 264 264 264 263 263 263 262 262 262
263 264 265 266 267 267 267 267 266 266 266 266 266 266 267 267 268 268 268 268 267 267 266 266 267 269 269 268 265 262 260 259 259 258 258 257 257 257 256 256 255 254 253 253 254 254 255 254 253 251 251 251 251 251 251 252 252 251 251 252 253 254 254 254 255 255 256 257 259 259 259 261 262 263 263 264 265 264 263 263 263 262 262 262 261
263 264 264 265 266 266 265 266 266 265 265 265 266 266 266 267 267 267 267 266 265 265 266 266 267 265 261 260 260 259 258 258 257 257 257 257 256 255 254 253 253 254 253 251 250 252 252 253 252 251 250 250 250 250 251 251 251 251 252 252 252 253 254 254 255 256 257 257 258 259 260 261 262 263 263 264 264 263 263 263 262 262 262 261 261
263 264 264 264 264 264 264 264 264 265 265 265 265 265 265 266 266 265 265 264 264 265 265 265 263 261 260 259 258 257 257 257 256 256 256 255 254 254 253 252 253 254 253 252 251 251 251 251 251 251 251 250 250 249 250 250 250 251 251 251 252 253 254 254 254 255 256 257 258 260 261 262 262 263 265 265 264 263 263 263 262 262 261 261 261
262 262 262 263 262 262 262 263 263 263 264 264 264 264 264 264 263 263 262 263 263 262 261 261 260 259 258 258 257 256 257 256 255 255 254 254 253 252 251 251 250 249 249 249 250 250 250 250 250 250 250 249 249 249 249 249 249 250 251 252 252 252 253 254 254 255 257 258 260 260 261 262 263 264 265 264 263 263 263 263 262 261 261 261 261
261 261 261 261 261 261 261 262 262 261 262 262 262 262 261 261 261 261 261 261 261 260 259 259 258 258 257 257 256 256 256 255 255 254 254 253 252 251 250 249 250 249 248 248 248 249 249 249 249 249 249 249 249 249 249 249 249 250 250 251 251 252 254 255 255 256 257 259 260 262 262 263 265 265 264 263 262 263 263 262 262 261 261 261 261
260 260 260 260 260 260 260 260 260 261 260 260 260 260 259 260 259 260 260 259 259 258 258 258 257 257 256 256 256 255 254 254 253 253 252 252 251 250 250 250 249 248 250 250 248 248 248 248 248 248 248 248 248 248 248 249 250 250 250 250 252 255 256 257 258 258 260 261 262 264 265 266 265 264 263 263 263 263 263 262 261 261 261 261 261
259 259 259 259 259 259 259 259 259 259 259 259 259 258 258 258 259 259 258 258 257 257 257 257 256 256 256 255 254 254 253 253 253 252 252 251 251 250 250 250 249 249 251 250 248 247 247 246 246 247 247 247 247 248 248 249 249 250 250 251 254 255 256 257 259 261 262 264 265 266 266 266 265 263 263 262 263 263 263 262 261 261 261 260 260
258 258 258 258 258 258 258 258 258 258 258 258 258 258 258 258 258 258 258 257 257 256 256 256 256 255 255 255 254 254 253 253 252 252 251 251 250 250 249 249 249 249 248 247 247 247 247 246 246 246 247 248 248 248 248 249 249 250 251 253 255 257 258 260 262 264 266 266 266 267 267 265 263 262 262 263 263 263 263 262 261 261 260 260 260
Wind_Speed
11 14 12 14 13 14 15 14 15 12 9 11 12 12 10 10 11 10 7 11 12 13 13 13 13 13 13 13 13 13 13 12 10 10 10 10 9 9 9 10 10 8 8 8 6 7 7 7 6 6 6 6 5 5 5 5 4 4 4 4 4 3 3 4 8 11 6 6 5 0 3 4 5 4 7 7 8 7 8 8 8 8 8 8 9
15 16 13 13 14 15 15 14 13 12 13 13 13 11 11 12 11 9 12 11 12 13 14 12 12 13 13 13 12 12 12 12 12 11 12 11 10 8 10 11 10 9 9 9 8 7 7 7 6 6 6 6 6 5 5 5 4 4 4 4 4 3 2 4 7 7 12 2 7 3 1 2 6 4 5 9 7 8 9 8 7 7 8 8 9
14 12 12 13 16 15 12 11 11 13 14 13 14 14 13 12 11 13 12 11 11 12 13 13 13 13 13 13 13 12 13 12 11 12 12 13 13 11 11 12 12 12 12 11 10 8 8 7 7 6 5 6 5 5 5 5 4 4 4 3 3 3 3 4 3 6 9 5 2 6 2 3 5 9 8 6 7 7 10 8 8 8 7 9 10
12 11 13 14 15 12 12 11 10 12 13 14 15 15 13 12 11 13 12 11 12 11 12 13 13 14 14 13 13 13 13 12 11 12 13 13 13 13 12 12 11 11 11 11 10 9 9 8 7 8 7 7 6 6 5 5 5 4 4 3 3 4 3 3 4 5 5 10 2 2 7 6 6 6 8 8 7 9 8 10 8 8 9 8 9
10 12 14 15 13 13 14 13 14 14 15 14 16 15 14 12 11 13 12 13 13 12 12 12 14 15 15 16 15 14 14 13 12 12 11 10 11 12 12 12 11 11 10 10 9 10 9 9 9 9 8 8 6 7 6 7 5 5 4 3 3 3 2 2 3 4 6 9 10 4 6 7 5 6 6 10 11 10 9 9 9 10 10 8 8
13 13 12 13 13 15 15 13 16 18 19 18 18 16 15 13 12 12 13 14 13 13 14 13 15 16 15 16 16 16 15 14 14 14 13 11 10 10 11 11 11 10 9 9 9 9 9 9 9 9 9 9 8 6 7 7 5 5 4 3 3 3 2 3 4 5 6 9 8 12 6 8 9 4 7 8 11 14 13 10 9 7 10 12 9
12 13 15 16 15 16 16 17 18 18 19 18 15 13 14 13 14 14 13 14 14 14 15 16 14 16 16 15 16 16 16 15 14 13 12 12 12 11 11 10 9 9 8 9 8 8 7 8 8 9 9 8 8 8 7 6 5 4 5 4 3 3 3 3 4 5 6 8 7 7 10 7 5 11 7 6 10 9 14 15 14 8 9 12 14
10 12 13 14 15 16 16 17 17 18 16 13 13 13 13 13 14 13 12 14 15 16 16 16 14 12 14 14 14 13 14 14 14 13 13 13 12 11 11 11 10 9 8 8 8 8 7 7 8 8 8 7 7 7 7 7 5 6 5 5 4 4 3 4 4 5 6 7 7 8 7 9 9 6 7 8 9 7 6 12 17 15 13 10 8
10 11 12 13 16 16 15 14 14 13 12 13 13 14 15 15 13 13 13 13 12 13 12 12 13 12 11 12 13 12 13 13 13 13 13 13 11 11 11 11 11 11 10 9 8 8 7 6 6 6 7 9 12 10 10 9 7 7 6 6 5 5 5 5 5 5 5 6 8 9 9 8 7 10 14 11 13 14 12 11 13 12 12 15 11
11 11 12 15 16 14 13 11 10 10 12 14 15 15 14 13 13 14 14 13 12 12 12 13 14 15 14 13 13 13 12 11 13 21 17 14 14 11 10 11 11 11 11 10 8 6 7 6 7 13 14 14 14 14 14 15 14 9 7 7 7 7 7 6 6 5 5 5 6 8 9 9 10 11 11 12 9 11 12 11 17 15 15 18 16
11 12 15 17 16 12 10 10 10 12 14 12 11 12 13 13 13 13 12 12 13 13 13 15 14 14 15 15 15 13 11 10 20 23 23 22 14 12 12 11 10 11 11 12 11 10 8 8 7 11 13 13 12 17 15 16 16 16 16 15 13 10 8 7 6 6 6 6 6 7 8 11 10 9 11 10 12 10 13 15 12 17 16 15 23
12 14 16 15 12 11 11 9 10 12 10 12 12 12 11 12 13 13 13 13 13 13 15 16 15 14 13 13 14 13 12 15 24 25 24 24 19 12 11 11 10 10 11 11 9 9 9 9 8 7 8 9 9 10 14 17 17 16 18 19 19 19 16 10 7 5 6 6 5 5 7 10 12 12 11 11 12 15 13 12 17 13 18 17 15
13 13 14 11 11 10 8 10 11 10 11 10 9 9 11 12 13 13 16 14 12 14 15 14 15 13 14 15 14 13 12 19 25 25 24 24 24 16 10 11 11 11 11 11 11 10 10 9 9 8 7 17 12 9 7 9 14 18 16 16 16 16 16 17 16 10 6 8 9 10 10 12 13 11 9 12 15 15 17 15 12 17 13 21 16
10 12 11 9 9 7 7 8 10 10 8 8 10 11 12 13 12 10 10 11 13 13 13 15 13 14 15 15 14 13 13 20 26 26 25 25 24 17 10 11 10 10 12 11 10 11 11 10 10 9 8 9 8 9 8 6 4 5 6 6 5 10 14 16 16 17 14 9 8 10 11 11 13 12 12 12 15 14 14 16 10 18 16 20 21
10 9 9 8 6 5 5 6 6 5 6 7 9 11 12 10 11 11 12 13 14 15 15 15 14 13 13 12 12 12 11 22 25 26 26 27 25 17 10 9 9 9 9 10 10 10 10 9 9 9 9 9 8 10 8 8 6 6 6 6 7 8 9 9 9 7 8 8 10 11 12 12 13 14 12 10 10 12 12 14 14 13 14 16 18
11 8 8 7 5 4 5 5 5 5 6 7 9 10 10 11 12 10 10 9 8 8 9 10 12 13 13 13 12 12 11 24 26 28 28 27 27 12 11 11 10 9 9 10 9 9 9 9 9 9 9 9 12 18 14 9 8 9 9 9 9 8 8 10 13 13 11 10 10 11 10 11 15 15 15 14 13 11 11 12 12 13 14 14 16
13 10 8 7 5 4 4 4 5 6 6 8 9 10 11 11 10 9 10 10 11 12 12 12 12 13 14 14 14 12 11 21 26 27 28 29 21 11 12 10 10 10 10 10 10 9 9 9 8 8 9 9 14 18 19 16 9 11 10 10 9 8 6 6 12 17 18 18 19 20 22 24 24 24 24 25 17 14 12 13 14 10 12 14 17
13 10 9 7 5 4 4 4 5 6 7 9 9 8 7 7 9 9 12 12 12 11 10 10 10 12 14 15 14 14 13 20 30 27 28 30 19 14 12 12 11 11 10 9 8 8 9 16 12 8 7 8 16 18 19 15 10 10 9 7 6 5 5 6 6 5 10 15 19 22 23 23 23 22 19 19 22 19 10 13 12 9 14 12 16
12 11 10 7 5 3 3 3 4 6 7 7 7 8 9 9 7 7 8 8 9 8 9 9 9 9 11 13 16 16 14 18 28 29 31 30 20 12 12 11 12 11 10 10 8 8 8 13 17 11 9 11 18 17 18 15 8 7 7 5 6 6 7 5 2 3 5 6 8 9 11 11 8 9 11 20 21 17 10 10 9 9 11 12 12
11 9 7 5 3 2 1 3 3 4 6 5 4 5 4 5 7 8 7 7 8 8 8 9 10 9 8 10 12 12 13 13 21 31 30 31 27 15 11 12 13 13 11 11 10 9 9 8 13 18 18 18 18 18 17 18 9 6 6 5 7 8 3 1 2 5 7 6 6 6 7 7 9 9 9 9 9 9 11 9 9 9 11 13 12
10 9 7 5 3 2 1 2 3 2 3 4 4 4 5 6 7 7 7 6 7 7 9 8 9 8 8 8 8 10 10 13 17 30 30 30 27 22 11 12 11 12 12 11 10 9 9 8 6 17 21 20 18 19 17 16 13 7 8 6 5 3 3 4 4 5 2 4 6 7 7 7 7 7 8 8 8 8 9 12 11 12 12 12 13
9 8 8 5 3 1 1 1 2 3 4 6 6 5 4 5 6 7 6 7 8 8 7 7 7 7 6 7 6 8 9 15 14 27 30 32 29 28 14 12 12 12 11 10 9 9 8 8 7 14 22 20 18 17 16 14 15 6 5 9 8 8 6 1 3 1 2 3 5 6 6 6 7 6 7 7 8 9 9 9 11 12 12 12 12
9 8 7 6 4 2 1 3 4 4 5 6 7 6 5 6 6 7 8 8 9 9 8 7 7 7 6 6 5 6 7 10 16 17 28 30 30 26 23 14 21 11 11 12 12 10 8 9 9 17 19 18 16 16 15 15 12 7 7 7 6 7 4 4 3 3 4 5 4 7 6 6 6 7 7 8 8 9 9 9 10 11 12 12 15
9 9 8 7 4 3 3 4 5 5 6 7 7 7 6 6 6 7 8 9 9 9 8 7 7 8 9 8 7 6 6 8 12 16 18 28 28 26 26 22 23 12 10 9 9 10 9 8 10 19 17 15 15 14 14 12 5 5 5 6 6 1 5 3 4 2 4 4 5 6 7 5 5 7 7 8 9 9 9 10 11 13 13 12 14
10 10 10 8 6 5 4 5 6 6 7 8 9 8 8 8 8 7 8 8 9 10 9 9 10 10 9 9 6 5 6 8 6 13 19 23 27 25 24 24 23 21 12 7 8 8 10 15 17 17 15 15 16 13 7 7 8 7 6 5 2 6 2 2 0 1 3 5 6 6 7 6 7 9 10 10 11 10 10 10 11 12 13 13 15
13 13 11 8 7 5 6 6 6 7 8 7 8 8 10 11 10 9 9 9 10 10 10 10 10 10 10 8 8 7 7 7 9 9 12 18 20 24 24 23 22 21 15 10 14 17 18 18 18 17 17 12 6 6 5 3 4 6 5 4 6 2 2 1 1 2 5 5 6 7 7 7 8 8 10 11 10 10 10 12 11 12 11 12 13
15 14 13 10 7 6 8 6 6 6 7 7 7 7 8 9 9 10 10 11 11 10 11 11 11 11 11 11 8 9 8 11 11 11 10 10 10 14 16 15 21 19 13 10 13 12 15 13 9 10 8 11 10 7 7 4 4 4 4 3 1 1 0 1 3 4 5 5 6 6 6 7 8 8 8 8 10 10 10 11 11 12 10 11 13
17 17 15 11 8 7 8 9 8 7 8 9 9 9 9 10 11 13 14 15 14 13 12 13 14 14 13 12 11 10 12 12 13 14 15 13 12 11 11 11 12 10 10 10 9 9 8 11 12 6 5 6 6 5 4 3 3 3 2 1 0 0 2 6 6 3 3 4 5 6 6 6 7 8 8 8 9 10 10 10 10 13 12 11 12
19 20 17 12 11 8 8 8 8 9 8 9 10 11 13 14 14 11 11 10 12 14 14 14 13 12 12 13 15 14 12 15 17 15 15 18 15 13 13 13 10 10 14 16 10 9 8 7 7 6 6 6 5 6 4 3 2 2 1 0 1 0 1 1 3 5 5 4 6 6 7 6 8 7 8 9 10 10 9 10 11 11 12 11 13
18 17 16 12 11 9 8 8 8 9 8 9 9 9 10 14 12 11 11 15 18 15 12 11 11 10 11 11 13 17 19 15 17 24 25 27 28 25 20 21 20 17 21 25 14 9 8 7 6 7 6 7 7 6 6 5 4 1 0 1 1 1 3 3 3 5 5 5 6 6 7 7 8 8 8 10 11 10 10 12 12 10 11 12 13
15 14 14 12 12 9 9 9 9 9 9 9 9 9 8 10 19 20 15 14 17 19 19 16 16 18 13 11 11 14 8 15 24 25 28 29 29 27 26 24 25 27 27 17 11 10 9 8 8 7 7 7 7 7 6 6 4 3 1 1 1 3 4 3 5 5 5 5 6 6 6 6 8 8 9 10 11 12 11 9 9 11 11 13 13
15 14 12 11 12 11 10 10 9 9 9 9 9 9 10 9 9 18 23 18 19 21 20 19 18 19 21 16 12 10 15 22 26 29 30 30 30 29 27 27 28 29 27 21 12 9 8 8 9 10 9 8 7 6 6 6 5 5 4 2 3 3 4 4 4 4 5 5 6 7 6 7 8 8 9 11 12 12 11 12 11 11 11 11 10
14 16 12 12 13 12 11 10 10 9 10 10 10 10 10 10 11 9 13 21 22 21 23 23 22 20 22 21 22 17 17 22 28 30 30 30 31 30 29 30 30 28 27 15 10 10 9 9 9 8 8 8 8 8 7 6 6 5 5 4 3 3 3 5 5 4 5 6 6 6 7 7 8 10 10 11 11 13 12 13 12 11 10 12 12
17 16 14 11 11 11 10 10 10 10 10 10 10 11 11 11 10 9 8 8 11 15 20 24 23 22 23 25 23 23 23 27 30 31 32 32 32 31 29 23 28 29 21 13 12 11 9 9 8 9 8 7 7 7 6 6 5 5 4 3 3 3 4 4 3 5 5 6 6 6 7 7 8 9 11 11 10 11 12 13 12 11 11 11 13
15 18 27 21 14 14 12 10 10 10 10 10 11 11 11 10 9 9 10 11 11 11 10 13 20 24 19 20 25 27 26 29 30 31 33 33 33 33 30 19 18 15 11 9 10 11 11 10 9 9 9 9 8 8 8 6 6 5 4 3 2 3 3 3 4 5 6 6 6 6 6 8 9 9 10 12 12 13 12 13 11 10 12 14 14
14 15 13 15 13 11 12 11 10 10 10 10 10 10 9 9 10 10 10 10 10 9 9 10 10 17 26 23 26 27 28 30 30 33 32 35 34 35 19 15 13 13 13 11 10 10 9 9 9 9 8 8 7 7 6 6 5 5 3 3 3 3 3 4 6 5 6 6 6 6 7 8 8 10 10 11 13 13 13 13 13 12 12 13 13
13 13 12 11 11 12 11 10 9 10 10 9 9 9 9 9 9 9 9 10 10 9 9 8 8 10 17 14 22 26 29 29 32 33 33 33 36 24 13 14 14 13 12 11 10 10 10 9 8 9 8 9 8 7 6 5 5 4 4 3 3 4 4 4 6 7 6 5 6 7 7 8 9 10 10 13 13 11 11 11 13 13 14 15 15
14 14 13 12 11 13 14 11 10 13 11 9 9 9 9 10 10 10 10 10 10 10 10 10 11 11 13 12 19 14 19 26 31 27 28 28 21 13 12 11 12 12 12 10 11 10 10 8 8 9 8 8 8 7 6 5 5 4 4 3 3 4 8 7 8 6 6 6 6 7 7 8 9 10 11 10 12 11 12 12 12 13 15 15 13
13 22 28 29 24 17 12 9 8 9 9 9 8 9 10 9 9 9 10 9 10 10 9 10 11 11 11 12 13 16 21 17 17 18 18 14 11 12 11 11 11 10 10 10 10 9 9 9 7 7 7 7 8 7 6 5 5 4 4 3 3 3 5 4 6 5 5 5 6 6 7 9 9 10 11 12 12 12 13 14 12 10 13 13 15
14 14 16 23 16 16 13 8 7 8 8 9 9 9 9 9 10 10 10 10 10 10 10 11 11 11 10 13 14 16 16 17 15 11 10 11 12 12 11 11 11 11 11 10 9 9 9 8 8 8 8 7 7 6 6 5 5 4 3 3 3 4 5 5 5 5 6 5 6 7 8 10 11 11 11 11 12 13 13 13 13 13 13 14 16
13 14 15 16 15 13 11 9 8 9 8 8 9 9 10 10 9 9 10 10 10 10 10 10 10 10 11 14 23 20 14 10 10 10 11 12 11 11 11 10 11 11 10 10 9 9 9 9 8 8 7 7 6 6 6 6 5 4 4 3 3 4 5 5 5 5 6 6 7 8 9 10 11 12 12 12 14 15 13 12 12 12 14 14 15
13 12 13 12 14 13 11 8 8 9 9 9 9 9 9 9 9 9 10 10 9 9 10 9 9 8 12 24 23 20 13 11 12 11 10 10 10 9 8 8 8 9 10 10 10 10 9 9 8 8 8 7 6 6 6 5 5 5 5 4 4 4 4 5 5 5 6 7 7 9 10 11 12 13 14 15 14 13 11 11 12 12 12 12 13
14 13 12 11 11 11 11 9 8 8 8 9 8 8 9 10 9 9 9 9 9 9 9 8 6 7 10 18 21 21 11 10 9 10 10 9 8 8 8 8 8 8 8 8 7 8 9 9 9 7 7 7 7 7 7 6 6 6 5 4 4 4 5 5 5 6 6 6 8 10 11 12 12 12 12 13 13 11 9 12 13 14 13 14 14
12 12 12 10 10 10 8 8 8 8 8 9 9 8 9 8 8 8 9 9 9 8 9 9 9 10 9 11 12 10 10 9 9 10 10 9 9 8 8 7 7 7 7 7 6 6 7 8 7 6 5 5 5 4 4 5 5 6 5 4 3 4 5 5 6 6 6 6 8 10 11 12 13 12 12 13 11 11 12 12 13 12 14 15 14
11 11 10 10 9 7 6 6 6 7 6 6 6 6 6 8 8 7 8 8 8 9 9 10 10 9 9 9 9 10 10 10 9 9 9 9 10 9 10 9 8 8 7 7 7 6 6 7 7 7 6 4 4 4 4 4 5 5 5 5 5 5 6 7 7 5 5 7 9 10 11 11 13 12 12 11 9 11 12 13 12 14 16 15 13
10 10 8 7 5 4 4 5 4 6 6 6 6 6 6 6 7 7 7 8 9 10 10 8 8 9 10 9 9 9 10 10 9 9 8 9 10 10 9 9 7 7 7 6 6 5 5 6 6 6 6 5 5 4 4 4 4 4 4 4 6 7 7 6 5 5 7 9 10 10 11 12 12 12 13 11 10 10 12 13 12 12 13 16 15
4 2 2 2 3 3 3 4 5 5 5 5 5 6 6 6 6 7 6 9 10 8 8 8 10 10 9 10 11 12 10 10 10 11 11 11 11 9 9 9 9 9 8 6 5 5 5 5 5 5 6 5 5 4 4 4 3 4 3 4 5 7 7 6 6 7 8 10 11 10 11 10 12 12 10 10 10 10 11 12 11 14 14 14 13
3 3 2 2 3 4 4 5 6 5 5 5 6 5 6 6 7 7 7 8 9 8 9 9 9 9 10 9 9 9 10 11 11 10 11 10 10 10 11 11 11 10 10 7 7 5 5 5 5 5 5 5 4 4 3 3 3 3 3 4 5 6 8 8 7 9 9 10 11 12 12 12 11 9 10 11 11 11 12 12 12 11 13 13 14
4 4 4 4 4 4 4 5 5 6 6 7 7 8 6 7 7 7 8 8 8 8 9 10 10 9 9 10 9 11 11 9 13 12 12 11 11 10 10 10 10 10 7 6 6 5 5 4 5 4 4 4 3 2 2 2 3 3 4 4 7 11 13 15 11 10 14 12 11 11 12 12 10 9 11 11 11 11 11 11 11 13 14 14 15
5 5 5 6 6 6 6 6 6 6 6 6 8 8 7 8 8 8 8 8 8 8 8 9 11 11 11 11 11 12 13 13 12 11 8 7 7 9 9 9 8 7 5 6 6 5 5 3 4 3 3 3 3 2 2 3 4 5 4 6 9 12 14 17 18 20 15 10 11 11 12 10 8 9 10 11 11 12 12 10 11 12 13 14 14
5 6 6 6 6 6 6 6 6 6 6 7 7 8 8 8 8 8 9 9 9 9 9 9 10 10 10 11 10 9 9 7 7 9 8 7 9 11 9 9 8 7 5 6 5 4 3 3 3 3 2 2 2 3 3 4 4 5 7 10 13 15 17 18 13 15 19 16 12 12 9 7 8 11 11 11 11 12 12 13 13 13 12 13 13
Wind_Direction
203 215 205 211 205 205 205 202 207 203 200 201 202 202 197 193 193 191 156 180 173 176 177 179 177 178 176 179 180 181 180 180 181 177 179 177 176 169 162 166 165 165 162 169 173 172 176 173 173 164 153 151 153 145 145 144 141 146 152 154 180 191 181 233 252 274 261 242 254 134 360 328 306 298 303 307 314 309 309 304 304 307 306 303 305
209 211 208 211 209 213 209 207 203 193 198 199 204 201 199 195 188 170 185 183 175 178 178 176 177 176 177 181 183 184 184 182 180 179 181 177 175 171 169 169 167 166 167 174 176 176 172 169 171 163 162 152 152 156 153 154 153 156 173 168 191 187 204 215 257 264 284 210 287 294 241 268 296 288 296 310 304 306 305 305 300 299 303 300 299
212 209 209 210 214 214 211 209 201 201 202 202 203 201 199 192 180 184 185 179 181 179 178 176 174 175 177 180 181 184 185 184 184 182 184 180 177 177 176 173 172 171 176 180 176 168 169 173 172 162 154 149 158 155 148 153 154 158 165 167 164 203 200 217 242 266 275 272 231 285 281 309 303 310 308 296 297 295 301 303 305 299 289 293 292
219 216 216 217 214 204 207 206 202 207 207 208 206 205 199 193 183 185 182 175 180 183 176 174 172 175 178 179 182 183 184 186 186 189 186 182 180 179 176 178 177 179 178 174 172 172 174 168 177 168 160 157 161 157 158 156 160 161 159 180 177 192 203 197 223 255 294 297 279 343 310 315 300 292 301 300 304 306 303 300 290 288 291 287 284
218 223 222 224 215 207 207 197 199 202 208 209 212 205 199 192 187 185 177 182 182 175 178 174 175 177 182 181 180 182 185 184 185 189 191 188 184 178 178 178 179 179 178 174 172 172 174 181 173 170 166 162 164 169 165 165 165 161 164 177 174 186 194 209 236 253 277 279 293 291 309 298 291 298 307 320 318 311 305 301 304 303 295 289 290
212 217 219 222 221 215 211 201 204 204 207 209 208 202 199 191 185 188 184 182 179 182 177 179 182 184 183 182 181 180 180 182 185 187 187 183 183 183 180 179 177 174 171 172 172 175 178 177 175 172 172 173 177 171 168 166 160 159 162 170 166 192 203 238 247 257 263 273 289 304 314 318 317 307 326 322 319 316 313 305 300 303 309 311 301
218 216 216 216 217 215 209 206 207 208 208 207 202 196 196 192 186 189 185 184 180 181 185 183 186 183 184 179 182 180 178 179 182 184 184 183 183 180 178 176 170 168 170 170 170 174 177 174 175 177 177 178 171 171 163 161 163 170 172 170 185 184 219 234 247 258 263 278 280 277 300 307 302 313 323 308 300 301 309 318 315 311 306 311 309
235 230 227 225 223 219 213 211 210 211 209 202 196 195 191 189 192 188 180 183 185 186 184 186 184 182 182 182 181 175 176 179 181 182 182 180 179 181 178 172 166 165 163 166 168 172 173 175 178 181 175 170 163 162 162 165 160 177 178 172 183 199 214 232 241 248 263 274 282 302 304 304 308 281 287 304 302 300 300 311 307 313 310 301 296
240 239 238 235 232 226 220 216 216 210 199 195 196 193 192 192 187 181 185 187 184 183 180 176 173 180 180 179 176 176 179 183 181 180 177 179 179 178 176 172 168 166 165 163 163 164 168 170 169 168 170 169 173 171 173 171 166 178 190 174 191 198 216 222 228 244 259 274 284 292 292 295 298 315 320 324 320 311 313 303 293 302 303 305 304
239 237 234 235 236 233 229 224 215 204 198 199 198 194 190 185 183 185 186 184 179 176 175 178 179 179 176 178 179 180 183 181 182 180 178 175 175 175 173 174 171 168 163 162 161 159 165 167 175 177 181 184 186 188 191 194 189 183 183 183 189 202 210 215 225 235 246 254 266 287 292 288 302 308 303 304 300 304 303 310 307 308 310 304 296
244 236 237 236 235 231 226 223 208 205 206 200 196 189 187 183 183 182 180 178 178 175 174 178 182 180 181 180 179 182 182 180 179 181 180 177 173 172 172 172 170 166 168 167 171 170 171 175 176 189 187 191 193 196 197 198 202 201 199 199 198 196 203 214 210 210 228 252 258 270 276 285 292 298 301 307 307 305 307 307 307 309 309 315 311
256 248 243 244 237 227 219 214 208 212 198 201 195 192 181 177 180 181 177 177 178 173 179 183 180 181 179 178 180 181 181 178 180 181 179 177 173 171 169 168 168 170 170 171 168 164 169 172 181 187 188 187 185 196 202 205 208 214 218 218 220 218 210 201 215 215 224 237 236 227 274 283 298 304 304 306 305 304 301 303 301 300 305 297 298
266 261 256 250 244 231 215 206 211 207 203 193 182 177 181 181 180 178 183 181 167 178 184 177 182 177 176 178 181 180 181 180 182 181 179 177 174 168 170 168 169 172 171 172 171 171 172 172 174 186 190 191 190 192 196 208 214 219 225 228 232 236 241 240 239 244 256 270 273 276 278 290 292 291 293 297 300 297 302 297 299 294 291 292 286
275 269 271 263 251 235 219 210 210 207 191 179 173 176 179 188 184 178 168 167 178 179 178 181 178 180 180 179 179 178 178 181 182 181 179 177 172 165 167 167 170 172 172 172 173 172 176 174 175 179 180 188 187 184 188 194 199 223 230 231 232 242 245 248 255 261 265 268 278 279 279 273 274 277 280 290 294 291 294 292 289 290 284 286 293
293 282 279 272 257 237 221 214 214 194 183 178 177 181 181 178 177 179 177 179 179 181 181 181 182 177 176 176 176 178 179 181 182 180 180 180 176 162 160 162 164 170 173 174 175 175 176 176 177 172 171 181 184 181 178 185 189 205 217 227 234 233 235 240 242 245 248 251 257 260 266 267 273 281 282 275 269 278 280 284 294 300 302 303 296
305 302 291 284 266 245 216 211 196 179 177 178 183 186 183 182 179 175 173 176 177 173 179 177 174 176 176 174 174 177 176 183 182 182 180 179 173 157 162 165 168 171 173 176 178 178 177 176 173 173 171 175 187 191 186 180 186 199 212 221 227 231 232 234 238 242 242 240 235 242 247 255 269 281 287 293 294 296 303 309 309 303 302 300 291
325 320 306 300 283 256 222 202 191 182 181 184 191 188 181 180 177 170 172 177 176 182 182 180 178 175 174 176 175 174 172 183 183 182 182 180 167 152 163 165 168 171 177 177 178 177 180 179 176 168 172 173 190 197 196 191 195 204 213 220 222 223 223 227 258 269 273 276 278 283 286 289 291 290 291 293 296 307 313 305 296 307 300 298 294
326 322 314 308 286 265 232 200 195 186 185 194 192 192 185 181 178 174 177 176 181 184 175 174 178 178 176 178 177 169 173 183 184 183 183 181 161 160 167 168 170 172 172 175 174 177 181 181 175 173 172 177 196 199 201 202 199 198 201 204 208 233 249 249 253 264 283 289 290 288 286 286 287 290 297 301 298 300 301 288 296 308 290 285 286
327 322 314 307 289 271 245 219 205 191 194 196 187 184 183 183 172 169 178 176 178 168 171 174 175 179 183 179 175 173 175 183 185 186 183 180 162 165 168 169 168 172 170 170 172 172 181 191 190 182 185 193 199 200 203 204 197 198 196 193 219 240 248 234 236 294 297 284 273 273 280 284 296 302 297 297 297 297 290 282 293 284 281 282 281
311 307 308 314 309 282 247 227 217 198 192 174 173 181 165 157 167 171 173 170 168 167 172 174 173 177 174 178 183 176 175 184 189 188 183 181 166 163 169 169 176 171 172 171 165 176 181 188 198 203 197 198 201 203 205 205 197 184 189 207 222 230 208 140 269 265 265 275 289 295 293 293 296 296 294 290 286 279 281 280 282 285 283 285 284
309 309 310 317 321 303 287 224 205 188 167 160 151 146 162 167 162 167 162 155 156 163 170 170 170 172 171 177 181 184 180 180 191 189 188 183 168 167 171 181 177 172 173 171 175 173 178 185 188 202 199 199 200 201 203 210 208 194 204 210 204 210 237 234 260 306 347 302 299 298 297 296 289 289 287 286 283 279 279 282 280 280 280 282 283
308 309 309 308 309 295 261 175 148 153 139 142 149 160 159 155 164 161 155 153 160 164 164 165 166 161 163 171 180 183 187 190 187 194 191 189 175 172 167 181 176 171 172 175 177 175 173 179 181 204 203 200 199 200 203 206 210 197 208 225 239 253 263 63 86 50 321 324 307 295 291 290 286 284 284 286 284 281 280 278 279 279 278 277 284
304 301 298 294 286 253 199 167 169 156 160 159 158 162 158 160 167 162 159 158 162 164 167 165 161 161 157 171 168 171 187 201 201 198 195 194 186 174 173 168 180 175 176 175 179 176 172 184 184 199 197 192 194 198 201 203 207 218 216 228 234 251 274 79 59 37 341 319 306 289 284 283 292 289 290 288 286 282 279 279 273 272 269 268 267
294 290 284 274 267 237 200 181 172 176 170 162 158 155 163 171 173 178 171 167 167 167 172 167 166 168 171 179 177 169 179 198 211 207 198 195 193 180 178 177 180 173 176 175 168 174 171 166 176 190 189 192 193 195 199 204 187 181 199 214 235 252 77 44 44 4 331 298 285 281 280 284 288 290 286 286 286 283 278 274 277 275 272 271 269
293 283 276 266 248 240 217 200 185 182 180 169 169 164 167 169 175 187 175 181 178 178 180 176 180 180 181 181 148 157 171 185 201 210 207 201 197 186 182 181 184 177 175 167 163 161 162 165 174 186 192 191 191 194 188 187 182 190 195 206 137 79 82 76 25 5 289 269 266 272 280 279 282 284 287 288 288 288 286 284 280 275 275 273 270
299 285 276 260 247 221 216 220 203 190 183 186 184 179 174 179 181 181 185 189 188 186 181 183 184 184 185 125 160 158 166 165 185 195 203 203 201 193 186 186 186 179 170 166 165 164 166 173 181 187 190 180 154 105 86 133 177 190 183 106 73 88 90 82 348 241 251 259 264 271 277 284 285 284 291 292 290 288 290 288 288 283 282 281 283
300 290 279 267 249 222 222 215 208 206 193 188 186 182 185 185 186 186 190 189 189 190 188 185 187 189 186 184 162 164 162 180 183 186 189 192 196 191 184 185 185 174 165 166 167 165 171 177 174 160 131 140 138 144 137 143 90 62 55 68 86 88 103 141 205 236 253 254 264 270 276 285 288 292 289 289 285 282 282 283 282 280 281 281 281
298 291 282 273 253 230 229 220 206 203 204 195 189 189 194 193 194 196 190 192 187 193 189 188 192 191 189 179 173 178 188 191 189 186 186 183 182 178 170 165 174 162 154 160 155 153 146 146 139 116 114 92 90 71 84 85 110 97 68 74 71 74 247 260 267 247 258 259 272 279 282 283 282 280 285 282 280 280 280 279 279 284 283 284 281
294 289 284 272 259 237 230 221 212 210 204 206 213 202 190 192 203 211 215 202 198 190 190 200 198 193 182 179 175 187 188 196 200 186 180 179 173 168 164 168 156 146 163 153 127 106 106 104 111 131 136 136 124 128 117 96 76 81 81 30 21 292 261 233 244 262 258 268 269 270 278 280 281 284 284 286 280 282 281 281 278 276 284 278 277
288 282 280 273 262 245 231 229 220 217 212 209 209 223 229 218 208 204 208 208 214 214 208 205 194 182 187 196 187 185 193 194 172 179 183 181 180 174 165 166 163 156 154 147 136 129 133 136 147 152 155 152 154 152 153 142 136 111 28 204 179 228 244 247 245 252 259 257 263 274 277 283 287 289 288 284 289 284 280 284 286 282 282 284 284
281 279 278 274 266 250 236 232 224 217 216 214 212 212 212 222 224 222 216 208 210 214 213 211 199 197 189 183 191 200 181 170 177 180 181 182 179 175 171 162 150 153 149 136 132 147 153 155 160 155 163 160 166 166 158 154 157 146 186 218 227 233 253 246 258 255 259 264 269 267 271 280 282 287 289 289 290 292 290 274 263 278 277 284 288
280 278 275 275 272 258 241 235 226 219 220 212 212 212 212 213 222 225 222 214 211 212 214 211 205 199 198 189 173 182 178 175 176 180 180 179 179 177 169 155 155 156 157 146 136 147 152 156 164 160 156 165 174 165 161 157 163 165 170 180 238 224 220 243 248 240 257 265 273 278 280 281 283 286 288 291 291 291 292 294 291 285 280 280 277
279 279 276 272 271 260 249 238 231 223 219 212 211 209 212 211 213 213 220 224 221 219 218 217 213 206 201 195 185 181 175 177 179 179 180 179 178 176 169 162 162 162 153 147 152 153 161 165 168 170 170 173 171 169 166 162 164 173 176 186 213 222 219 245 270 270 268 265 270 273 282 284 287 290 288 288 290 292 292 293 289 281 283 290 290
274 275 277 271 268 264 252 241 234 229 220 218 214 211 213 212 213 203 195 197 219 224 222 218 213 209 209 202 191 183 181 180 182 179 180 179 176 173 168 168 168 168 155 156 158 162 160 169 171 170 174 166 165 159 164 168 172 171 181 198 212 245 254 270 272 274 275 278 278 276 281 282 289 295 294 292 284 282 286 289 292 293 295 295 298
268 271 271 269 266 264 258 245 235 229 223 217 216 213 215 212 207 203 197 200 201 204 202 212 215 211 204 201 198 186 183 184 183 180 179 177 175 170 164 163 170 162 140 146 154 161 166 170 168 169 168 170 171 164 169 171 168 170 178 197 223 237 264 265 265 271 273 276 277 275 279 289 293 290 291 295 298 296 291 289 290 289 295 299 299
287 285 288 287 282 271 257 248 231 226 222 220 215 214 212 205 205 206 205 204 205 201 202 200 200 208 203 198 195 191 187 184 181 180 178 176 172 168 165 171 161 155 157 159 155 159 162 167 163 169 167 166 161 163 167 166 170 167 170 177 215 234 241 259 264 269 268 267 271 285 294 292 289 289 287 285 283 285 289 290 290 289 292 294 294
269 268 266 263 264 264 263 250 234 225 221 216 209 210 206 206 204 204 203 203 203 203 199 188 180 194 202 196 193 190 185 181 181 179 179 178 176 174 164 162 157 157 158 159 154 154 164 170 166 161 166 164 165 164 158 164 162 159 185 192 208 235 244 245 259 256 268 286 293 295 291 288 288 286 287 289 288 282 281 282 286 288 294 293 297
264 268 268 261 253 257 255 247 235 228 223 213 207 204 201 202 199 199 199 200 199 194 191 189 188 186 187 185 184 183 184 179 178 179 179 179 177 162 162 152 149 151 154 152 158 158 163 160 164 163 167 162 157 161 157 157 158 162 179 189 214 212 262 268 284 297 294 286 283 286 286 285 284 283 283 277 280 286 288 288 288 295 298 298 299
281 274 272 275 278 281 277 249 227 215 210 207 200 199 200 197 196 196 198 196 197 194 192 188 187 187 181 171 176 177 176 174 177 177 181 172 152 145 137 147 151 148 148 149 149 155 155 161 165 159 157 161 156 156 158 154 153 161 183 187 221 234 257 268 268 269 275 275 280 282 283 283 281 279 278 281 282 284 285 289 290 294 299 302 302
277 276 272 265 263 261 262 246 216 206 203 197 199 196 197 197 197 195 192 193 195 192 188 186 187 186 176 175 176 177 175 180 174 161 133 138 142 142 147 152 153 153 150 148 154 155 156 159 161 160 160 155 156 152 148 149 156 168 177 204 220 245 252 252 261 270 272 278 280 283 283 283 283 281 280 277 281 287 290 293 298 300 297 297 300
267 270 275 272 262 255 246 224 208 200 197 194 196 193 198 197 193 191 192 195 190 187 185 186 181 181 179 179 178 178 170 151 126 129 136 136 142 151 157 152 148 146 146 148 154 154 156 155 161 159 155 156 153 150 148 152 161 169 182 203 220 243 252 260 257 266 268 276 277 279 279 279 281 283 283 284 290 293 286 288 291 294 298 298 297
263 261 255 252 258 260 257 227 207 192 191 191 191 192 193 191 192 192 193 192 186 182 178 175 174 165 176 174 172 154 130 134 137 141 141 139 143 144 139 137 143 145 147 152 154 157 155 154 155 158 157 158 151 150 145 155 168 180 185 195 217 234 245 254 257 261 268 271 276 276 276 277 280 281 285 291 292 286 285 293 293 294 297 298 298
264 262 259 255 252 246 241 226 196 193 191 190 191 188 186 187 189 190 189 186 179 173 166 151 133 143 154 155 146 137 122 130 127 128 129 132 132 126 131 139 141 141 141 145 150 154 153 151 155 159 161 160 160 156 165 173 169 174 183 194 211 227 246 255 262 265 264 269 274 276 277 279 281 281 283 285 282 281 290 299 301 303 301 302 302
261 261 255 249 246 241 226 199 194 191 189 187 182 184 180 184 183 183 180 172 165 153 144 140 141 142 135 125 114 111 123 121 122 122 130 130 129 126 124 118 118 117 126 134 145 145 144 143 145 141 136 135 142 140 149 162 166 174 182 196 211 229 240 250 253 259 264 277 280 280 281 280 279 282 282 285 283 298 304 303 303 302 304 306 304
257 256 254 251 243 223 204 185 181 179 172 171 174 173 174 174 174 170 161 153 143 140 143 147 147 130 113 116 124 126 125 123 121 121 124 127 125 124 111 115 132 139 141 145 139 144 136 140 141 144 149 145 150 161 175 176 180 185 181 190 209 234 237 244 245 257 271 277 275 273 274 272 282 283 282 280 292 304 302 304 301 304 306 303 304
254 255 247 231 209 185 175 161 157 156 161 165 162 162 160 165 156 152 144 140 142 144 145 137 118 116 122 120 120 119 120 120 121 120 118 116 117 117 117 134 132 139 149 153 152 144 146 145 151 149 150 150 159 170 185 182 186 192 198 201 220 235 243 251 265 271 268 267 271 271 277 277 277 280 282 295 305 302 298 299 297 298 300 303 302
273 264 243 167 162 137 132 134 138 142 141 143 141 141 139 131 122 120 129 135 136 127 117 117 120 119 118 122 125 125 122 121 114 101 98 100 104 129 133 126 97 74 89 95 144 151 150 151 149 148 145 148 156 170 183 187 193 199 210 218 223 242 245 251 251 255 259 266 270 272 274 269 278 282 287 302 301 298 296 296 296 303 305 304 302
345 21 28 66 89 108 112 113 114 111 109 110 110 113 111 108 114 117 120 120 115 114 112 108 109 114 114 114 117 118 116 116 108 115 95 105 99 110 101 98 108 117 81 96 68 147 156 155 151 146 147 155 164 173 180 191 202 215 225 231 233 235 248 250 254 259 259 262 264 269 265 268 275 287 304 302 301 301 299 301 304 302 306 306 307
19 34 46 46 55 59 79 91 97 103 107 106 103 99 99 101 102 106 110 108 109 114 119 118 114 114 116 121 123 112 104 116 93 96 97 102 109 112 102 102 96 132 155 161 165 164 160 155 149 150 154 158 163 176 204 216 241 236 245 242 251 255 260 267 267 263 265 266 265 265 271 278 287 300 302 301 297 297 296 296 301 305 308 307 308
37 36 52 52 61 58 61 67 74 84 87 98 102 101 100 106 106 107 105 104 104 105 110 118 124 127 131 130 125 115 115 104 113 115 119 119 122 124 129 152 165 170 162 159 163 159 150 152 149 144 152 162 184 188 213 227 241 247 252 255 264 268 269 269 273 273 272 271 277 285 282 283 293 302 301 300 299 298 299 300 303 306 306 308 308
47 51 55 58 63 65 69 79 81 81 87 100 101 110 110 111 113 115 116 119 119 121 122 120 121 120 120 117 116 121 122 101 109 110 119 130 132 131 152 158 154 150 96 109 141 142 151 141 146 153 161 176 197 213 218 231 244 246 256 263 269 271 272 272 270 275 287 295 293 288 286 291 302 304 304 303 302 301 300 305 310 310 311 311 309